Voltar ao catálogo

STARLINK-34919

AtivoComunicaçõesSSO
NORAD 65802·PAYLOAD·🇺🇸 United States

Lançado Sep 26, 2025 de Vandenberg Space Force Base

Loading…

Próximas Passagens (próximas 24 horas)

TLE

AtualizadoSource: CelesTrak SupGP

Época: Sep 15, 2026, 03:40 UTC

1 65802C 25218M   26258.15326389 -.00022604  00000+0 -70155-3 0  2583
2 65802  97.2848 115.6279 0001943  95.4885 347.1076 15.33455028    13

Acompanhe STARLINK-34919 em tempo real com AllMySat

Download on the App Store